Regional Weather Roundup
Issued by NWS

Home | Current Version | Previous Version | Text Only | Print | Product List | Glossary Off
Versions: 1 2 3 4 5 6 7 8 9 10 11 12 13 14 15 16 17 18 19 20 21 22 23 24 25 26 27 28 29 30 31 32 33 34 35 36 37 38 39 40 41 42 43 44 45 46 47 48 49 50

000
ASUS45 KTFX 280204
RWRMT
MONTANA HOURLY WEATHER ROUNDUP
NATIONAL WEATHER SERVICE GREAT FALLS MT
704 PM MST SAT DEC 27 2014

NOTE: "FAIR" INDICATES FEW OR NO CLOUDS BELOW 12000 FEET WITH NO
SIGNIFICANT WEATHER AND/OR OBSTRUCTIONS TO VISIBILITY.

* THESE STATIONS ARE NOT UNDER NWS QUALITY CONTROL. THEY DO NOT
   REPORT WEATHER SUCH AS PRECIPITATION OR FOG.

MTZ001>007-043-280300-
WEST OF THE DIVIDE
CITY           SKY/WX    TMP DP  RH WIND       PRES   REMARKS
KALISPELL      LGT SNOW  28  28 100 SE12      29.89F VSB 1    WCI  18
MISSOULA       CLOUDY    30  23  75 SE9       29.95F WCI  22
BUTTE          MOCLDY    19  10  68 CALM      29.93F
MULLAN PASS    LGT SNOW  21  18  88 VRB6      29.77F VSB 1    WCI  13
* ESSEX        N/A       25  23  92 N/A        N/A
* LINCOLN      N/A       24  21  88 W3G8       N/A
* LOOKOUT PASS N/A       25  23  92 SE2G15     N/A
* POLSON       N/A       27  26  96 N/A        N/A
* RONAN APT    CLOUDY    30  28  92 SW8        N/A   WCI  22
* SEELEY LAKE  N/A       25  23  92 NE1        N/A
* THOMP F APT  CLOUDY    10   5  80 E3G8       N/A
* YAAK HILL    N/A       31  27  85 S1         N/A
$$

MTZ008-052>055-280300-
SOUTHWEST MONTANA
CITY           SKY/WX    TMP DP  RH WIND       PRES   REMARKS
BOZEMAN        CLOUDY    19  12  74 CALM      29.98F
DILLON         CLOUDY    19  12  74 SW10      29.98F WCI   8
* W YELLOWSTON PTCLDY    10   6  84 SW2        N/A
* THREE FORKS  MOCLDY    27  19  72 SW21G35    N/A   WCI  13
* BOULDER HILL N/A       19   6  57 SW16G21    N/A   WCI   4
* MONIDA PASS  N/A        8   6  91 SE22       N/A   WCI -12
* RAYNOLDS PAS N/A       10  -4  53 S19G26     N/A   WCI  -8
* WHITEHALL    N/A       26  13  58 SW15G25    N/A   WCI  14
* WISE RIVER   N/A       23  12  63 NW10G18    N/A   WCI  13
$$

MTZ009>010-012-014-046-048-049-054-280300-
EAST SLOPES AND CENTRAL MONTANA
CITY           SKY/WX    TMP DP  RH WIND       PRES   REMARKS
CUT BANK       CLOUDY    27  18  69 CALM      29.82F
GREAT FALLS    CLOUDY    27  19  72 SW15      29.86F WCI  15
HELENA         PTCLDY    21  16  81 CALM      29.93F
* DEARBORN     N/A       32  16  52 SW6G13     N/A   WCI  26
* EAST GLACIER N/A       24  18  78 W20G28     N/A   WCI   9
* MONARCH      N/A       22   9  57 S12        N/A   WCI  10
* PENDROY      N/A       26  15  63 SE6        N/A   WCI  19
* SWEET GRASS  N/A       21  15  78 N/A        N/A
$$

MTZ011-013-016-021-035-040-045-047-050-051-280300-
NORTH CENTRAL MONTANA
CITY           SKY/WX    TMP DP  RH WIND       PRES   REMARKS
HAVRE          CLEAR     23  19  85 SW12      29.90F WCI  11
LEWISTOWN      CLOUDY    21  12  68 SW13      29.90S WCI   8
* N BAR RANCH  CLOUDY    21  12  68 W5        29.90F WCI  14
* CHESTER      N/A       20  16  84 S1         N/A
* DENTON       N/A       16   9  74 SW10       N/A   WCI   4
* JUDITH GAP   N/A       20  13  74 SW12G19    N/A   WCI   8
* LOMA         N/A       27  20  75 S3G8       N/A
$$

MTZ017>020-022>027-061-062-280300-
NORTHEAST MONTANA
CITY           SKY/WX    TMP DP  RH WIND       PRES   REMARKS
GLASGOW        CLOUDY    27  18  69 SW6       29.93F WCI  20
GLENDIVE       MOCLDY    21  18  88 SW6       29.98S WCI  13
JORDAN         CLEAR     21  18  88 W7        29.94F WCI  12
SIDNEY         CLOUDY    25  19  78 CALM      30.01S
WOLF POINT     CLOUDY    21  18  88 NE5       29.96F WCI  14
* BEAVER HILL  N/A       21  15  78 SW12G17    N/A   WCI   9
* CIRCLE       N/A       24  20  85 N/A        N/A
* LINDSAY DVD  N/A       23  19  85 SW9        N/A   WCI  13
* NAVAJO       N/A       15  13  92 E4         N/A
* SACO         N/A       25  19  78 S4         N/A
$$

MTZ028>042-056>058-280300-
SOUTHCENTRAL AND SOUTHEAST MONTANA
CITY           SKY/WX    TMP DP  RH WIND       PRES   REMARKS
BAKER          CLOUDY    23  18  81 SW8       29.99S WCI  14
BILLINGS       MOCLDY    21  12  68 SW15      29.97F WCI   7
LIVINGSTON     CLOUDY    27  10  49 SW36G47   29.94S WCI  10
MILES CITY     CLOUDY    25  19  78 S6        29.98F WCI  18
* LAUREL APT   PTCLDY    19   9  65 SW9        N/A   WCI   8
* ROUNDUP APT  PTCLDY    27  12  53 SW11G17    N/A   WCI  17
* ALZADA       N/A       17  12  81 W2         N/A
* HYSHAM       N/A       24  12  60 W3         N/A
* REED POINT   N/A       20  13  74 E2G9       N/A
* ROSCOE HILL  N/A       26  -1  31 SW11G22    N/A   WCI  16
$$

REGIONAL REPORTS...DAKOTAS
CITY           SKY/WX    TMP DP  RH WIND       PRES   REMARKS
WILLISTON      LGT SNOW  21  18  88 N8        30.01R WCI  11
DICKINSON      CLOUDY    23  16  74 W9        29.96S WCI  13
BEACH          CLOUDY    19  16  88 SW9       29.98F WCI   8
CROSBY         CLOUDY    16  14  92 N6        30.03S WCI   7
WATFORD CITY   LGT SNOW  23  19  85 CALM      29.98S VSB 3
BISMARCK       PTCLDY    16  12  84 CALM      30.03R
GRAND FORKS    CLOUDY    19  16  88 CALM      30.04R
FARGO          CLOUDY    21  16  81 SW7       30.04R WCI  12
BUFFALO SD     PTCLDY    23  16  74 W10       29.93F WCI  13
RAPID CITY     MOCLDY    16   9  74 W3        30.03S
$$

REGIONAL REPORTS...WYOMING/IDAHO/WASHINGTON
CITY           SKY/WX    TMP DP  RH WIND       PRES   REMARKS
GILLETTE       MOCLDY    19   7  59 SW10      29.99F WCI   8
SHERIDAN       PTCLDY    18   3  52 CALM      29.98F
CODY           PTCLDY    27   9  46 W16G29    29.95F WCI  15
YELLOWSTONE LA MOCLDY    10   5  80 CALM      30.03F
SALMON         MOCLDY    19  16  88 CALM      30.10F
MULLAN PASS    LGT SNOW  21  18  88 VRB6      29.77S VSB 1    WCI  13
SAND POINT     SNOW      32  32 100 CALM      29.90F VSB 3/4
SPOKANE        CLOUDY    34  34 100 SW18      29.87F WCI  23

$$




USA.gov is the U.S. government's official web portal to all federal, state and local government web resources and services.